Weather History for Palmdale, CA

Change the Weather History Date:

Sunday, March 31, 2013

  Actual Average Record
Temperature  
Mean Temperature 57 °F 55 °F  
Max Temperature 65 °F 69 °F 87 °F (2002)
Min Temperature 49 °F 40 °F 25 °F (1938)
Degree Days  
Heating Degree Days 8 11  
Month to date heating degree days 206 376  
Since 1 July heating degree days 2410 2621  
Cooling Degree Days 0 0  
Month to date cooling degree days 7 2  
Year to date cooling degree days 7 2  
Growing Degree Days 8 (Base 50)    
Moisture  
Dew Point 43 °F    
Average Humidity 59    
Maximum Humidity 77    
Minimum Humidity 40    
Precipitation  
Precipitation 0.00 in 0.02 in 0.85 in (1946)
Month to date precipitation 0.25 1.22  
Year to date precipitation 0.71 4.51  
Since 1 July precipitation 1.00 7.49  
Snow  
Snow 0.00 in - T in (1967)
Month to date snowfall 0.0  
Since 1 July snowfall 0.0  
Snow Depth 0.00 in    
Sea Level Pressure  
Sea Level Pressure 30.03 in    
Wind  
Wind Speed 16 mph (WSW)    
Max Wind Speed 26 mph    
Max Gust Speed 32 mph    
Visibility 10 miles    
Events      
T = Trace of Precipitation, MM = Missing Value Source: NWS Daily Summary

Daily Weather History Graph

Daily Weather History Graph

Search for Another Location

Airport:

Trip Planner

Search our weather history database for the weather conditions in past years. The results will help you decide how hot, cold, wet, or windy it might be!

Date:

Astronomy

Mar. 31, 2013 Rise Set
Actual Time 6:40 AM PDT 7:12 PM PDT
Civil Twilight 6:14 AM PDT 7:38 PM PDT
Nautical Twilight 5:45 AM PDT 8:08 PM PDT
Astronomical Twilight 5:14 AM PDT 8:38 PM PDT
Moon No Moon Rise 9:43 AM PDT (3/31)
Length of Visible Light 13h 23m
Length of Day
12h 32m
Waning Gibbous, 76% of the Moon is Illuminated
Mar 31
Waning Gibbous
Apr 2
Last Quarter
Apr 10
New
Apr 18
First Quarter
Apr 25
Full

Hourly Weather History & Observations

Time (PDT) Temp. Dew Point Humidity Pressure Visibility Wind Dir Wind Speed Gust Speed Precip Events Conditions
12:53 AM 57.0 °F 33.1 °F 40% 29.99 in 10.0 mi SW 24.2 mph - N/A   Clear
1:53 AM 55.9 °F 32.0 °F 40% 30.01 in 10.0 mi SW 19.6 mph - N/A   Clear
2:53 AM 54.0 °F 39.0 °F 57% 30.01 in 10.0 mi West 5.8 mph - N/A   Scattered Clouds
3:53 AM 55.0 °F 42.1 °F 62% 30.01 in 10.0 mi WSW 15.0 mph - N/A   Mostly Cloudy
4:53 AM 54.0 °F 43.0 °F 66% 30.01 in 10.0 mi SW 16.1 mph - N/A   Mostly Cloudy
5:53 AM 53.1 °F 44.1 °F 71% 30.02 in 10.0 mi SW 16.1 mph - N/A   Clear
6:53 AM 51.1 °F 44.1 °F 77% 30.05 in 10.0 mi SW 13.8 mph - N/A   Clear
7:53 AM 54.0 °F 46.0 °F 75% 30.06 in 10.0 mi SW 17.3 mph - N/A   Clear
8:53 AM 57.0 °F 45.0 °F 64% 30.06 in 10.0 mi SW 13.8 mph - N/A   Partly Cloudy
9:53 AM 59.0 °F 43.0 °F 55% 30.06 in 10.0 mi WSW 16.1 mph - N/A   Mostly Cloudy
10:53 AM 60.1 °F 42.1 °F 51% 30.07 in 10.0 mi WSW 16.1 mph - N/A   Mostly Cloudy
11:53 AM 64.0 °F 43.0 °F 46% 30.06 in 10.0 mi WSW 19.6 mph 26.5 mph N/A   Overcast
12:53 PM 64.9 °F 43.0 °F 45% 30.05 in 10.0 mi West 19.6 mph 26.5 mph N/A   Mostly Cloudy
1:53 PM 62.1 °F 45.0 °F 53% 30.03 in 10.0 mi WSW 16.1 mph - N/A   Overcast
2:53 PM 64.0 °F 45.0 °F 50% 30.01 in 10.0 mi SW 20.7 mph - N/A   Clear
3:53 PM 64.0 °F 46.0 °F 52% 30.00 in 10.0 mi WSW 20.7 mph 26.5 mph N/A   Mostly Cloudy
4:53 PM 62.1 °F 46.0 °F 56% 30.00 in 10.0 mi WSW 17.3 mph 25.3 mph N/A   Mostly Cloudy
5:53 PM 60.1 °F 46.0 °F 60% 29.99 in 10.0 mi WSW 17.3 mph - N/A   Overcast
6:53 PM 57.0 °F 45.0 °F 64% 30.01 in 10.0 mi SSW 12.7 mph - N/A   Clear
7:53 PM 55.9 °F 45.0 °F 67% 30.00 in 10.0 mi SW 19.6 mph - N/A   Clear
8:53 PM 55.0 °F 45.0 °F 69% 30.02 in 10.0 mi SW 21.9 mph 27.6 mph N/A   Clear
9:53 PM 53.1 °F 45.0 °F 74% 30.03 in 10.0 mi SW 15.0 mph - N/A   Clear
10:53 PM 52.0 °F 45.0 °F 77% 30.04 in 10.0 mi WSW 18.4 mph - N/A   Clear
11:53 PM 51.1 °F 42.1 °F 71% 30.04 in 10.0 mi WSW 9.2 mph - N/A   Clear